Regional Weather Roundup
Issued by NWS Albany, NY

Home | Current Version | Previous Version | Text Only | Print | Product List | Glossary On
Versions: 1 2 3 4 5 6 7 8 9 10 11 12 13 14 15 16 17 18 19 20 21 22 23 24 25 26 27 28 29 30 31 32 33 34 35 36 37 38 39 40 41 42 43 44 45 46 47 48 49 50
517
ASUS41 KALY 280810
RWRALY

NEW YORK STATE HOURLY WEATHER ROUNDUP
NATIONAL WEATHER SERVICE ALBANY NY
400 AM EDT THU JUL 28 2016

NOTE: "FAIR" INDICATES FEW OR NO CLOUDS BELOW 12,000 FEET WITH NO
SIGNIFICANT WEATHER AND/OR NO OBSTRUCTIONS TO VISIBILITY.

NYZ032-033-038>043-046>054-057>066-NYZ062>081-082-084-280900-
EAST


CITY           SKY/WX    TMP DP  RH WIND       PRES   REMARKS
ALBANY         CLEAR     67  61  81 CALM      29.90F
GLENS FALLS    CLEAR     66  61  84 CALM      29.89F
POUGHKEEPSIE   CLEAR     65  62  90 CALM      29.91S
NEWBURGH       CLEAR    N/A N/A N/A CALM      29.94R
MONTGOMERY     CLEAR     63  62  97 CALM      29.92S
WHITE PLAINS   CLEAR     71  68  90 CALM      29.91S
ISLIP          CLOUDY    76  75  97 W5        29.90S
NEW YORK CITY  PTCLDY    80  73  79 CALM      29.89F
CENTRAL PARK   CLEAR     78  71  79 W5        29.93S
$$

NYZ005>009-017-018-044>046-055-056-280900-
CENTRAL


CITY           SKY/WX    TMP DP  RH WIND       PRES   REMARKS
FULTON         PTCLDY    70  66  87 CALM      29.90S
SYRACUSE       PTCLDY    70  64  81 S5        29.89F
ROME           CLEAR     64  63  96 SE5       29.91F
ELMIRA         CLEAR     61  58  90 CALM      29.94F
BINGHAMTON     CLEAR     70  58  65 NW5       29.97S
MONTICELLO     CLEAR     61  59  94 CALM      29.98F
$$

NYZ026>034-041>043-087-280900-
NORTH


CITY           SKY/WX    TMP DP  RH WIND       PRES   REMARKS
WATERTOWN      PTCLDY    69  66  90 S6        29.87S
FORT DRUM      NOT AVBL
MASSENA        CLOUDY    68  63  84 S3        29.87S
SARANAC LAKE   MOCLDY    59  56  89 CALM      29.92S
PLATTSBURGH    CLOUDY    73  64  73 CALM      29.86R
$$

NYZ001>004-010>016-019>021-085-280900-
WEST


CITY           SKY/WX    TMP DP  RH WIND       PRES   REMARKS
NIAGARA FALLS  PTCLDY    71  65  81 CALM      29.91R
BUFFALO        MOCLDY    71  61  70 S3        29.91S
DUNKIRK        CLEAR     64  59  83 S3        29.92F
JAMESTOWN      CLEAR     63  59  88 CALM      29.97S
WELLSVILLE     CLEAR     62  58  86 CALM      30.01F
ROCHESTER      MOCLDY    69  63  81 CALM      29.91F
PENN YAN       CLEAR     69  63  81 SW6       29.94F
$$

             KEY
       WCI = WIND CHILL INDEX
       VSB = VISIBILITY
       HX  = HEAT INDEX
$$




USA.gov is the U.S. government's official web portal to all federal, state and local government web resources and services.